Year,Month,Day,Hour,Minute,Value (Times are PST for windgust in km/hr)
2018,12,15,00,00,29.00
2018,12,15,00,01,14.50
2018,12,15,00,02,22.50
2018,12,15,00,03,24.20
2018,12,15,00,04,29.00
2018,12,15,00,05,27.40
2018,12,15,00,06,48.30
2018,12,15,00,07,27.40
2018,12,15,00,08,17.70
2018,12,15,00,09,19.30
2018,12,15,00,10,38.60
2018,12,15,00,11,33.80
2018,12,15,00,12,9.60
2018,12,15,00,13,19.30
2018,12,15,00,14,22.50
2018,12,15,00,15,24.20
2018,12,15,00,16,32.20
2018,12,15,00,17,9.60
2018,12,15,00,18,11.30
2018,12,15,00,19,19.30
2018,12,15,00,20,24.20
2018,12,15,00,21,19.30
2018,12,15,00,22,12.90
2018,12,15,00,23,14.50
2018,12,15,00,24,16.10
2018,12,15,00,25,14.50
2018,12,15,00,26,8.10
2018,12,15,00,27,24.20
2018,12,15,00,28,19.30
2018,12,15,00,29,19.30
2018,12,15,00,30,35.40
2018,12,15,00,31,35.40
2018,12,15,00,32,9.60
2018,12,15,00,33,25.70
2018,12,15,00,34,14.50
2018,12,15,00,35,12.90
2018,12,15,00,36,6.40
2018,12,15,00,37,12.90
2018,12,15,00,38,11.30
2018,12,15,00,39,6.40
2018,12,15,00,42,11.30
2018,12,15,00,44,9.60
2018,12,15,00,45,11.30
2018,12,15,00,46,9.60
2018,12,15,00,47,11.30
2018,12,15,00,48,11.30
2018,12,15,00,49,12.90
2018,12,15,00,51,11.30
2018,12,15,00,52,33.80
2018,12,15,00,53,22.50
2018,12,15,00,54,16.10
2018,12,15,00,55,8.10
2018,12,15,00,56,8.10
2018,12,15,00,57,11.30
2018,12,15,00,58,14.50
2018,12,15,00,59,16.10
2018,12,15,01,00,8.10
2018,12,15,01,01,3.20
2018,12,15,01,02,11.30
2018,12,15,01,03,8.10
2018,12,15,01,04,16.10
2018,12,15,01,05,30.60
2018,12,15,01,06,9.60
2018,12,15,01,07,12.90
2018,12,15,01,08,8.10
2018,12,15,01,09,3.20
2018,12,15,01,10,11.30
2018,12,15,01,11,4.80
2018,12,15,01,13,32.20
2018,12,15,01,14,33.80
2018,12,15,01,15,9.60
2018,12,15,01,19,4.80
2018,12,15,01,20,12.90
2018,12,15,01,21,17.70
2018,12,15,01,22,24.20
2018,12,15,01,23,12.90
2018,12,15,01,24,12.90
2018,12,15,01,27,1.60
2018,12,15,01,28,11.30
2018,12,15,01,29,11.30
2018,12,15,01,30,16.10
2018,12,15,01,31,6.40
2018,12,15,01,32,16.10
2018,12,15,01,33,4.80
2018,12,15,01,34,12.90
2018,12,15,01,35,19.30
2018,12,15,01,36,19.30
2018,12,15,01,37,9.60
2018,12,15,01,38,17.70
2018,12,15,01,39,35.40
2018,12,15,01,40,22.50
2018,12,15,01,41,32.20
2018,12,15,01,42,27.40
2018,12,15,01,43,11.30
2018,12,15,01,44,25.70
2018,12,15,01,45,19.30
2018,12,15,01,46,25.70
2018,12,15,01,47,30.60
2018,12,15,01,48,17.70
2018,12,15,01,49,19.30
2018,12,15,01,50,14.50
2018,12,15,01,51,17.70
2018,12,15,01,52,29.00
2018,12,15,01,53,16.10
2018,12,15,01,54,12.90
2018,12,15,01,55,6.40
2018,12,15,01,56,22.50
2018,12,15,01,57,12.90
2018,12,15,01,58,19.30
2018,12,15,01,59,16.10
2018,12,15,02,00,35.40
2018,12,15,02,01,6.40
2018,12,15,02,02,3.20
2018,12,15,02,03,1.60
2018,12,15,02,12,8.10
2018,12,15,02,13,4.80
2018,12,15,02,19,9.60
2018,12,15,02,20,9.60
2018,12,15,02,21,14.50
2018,12,15,02,22,9.60
2018,12,15,02,23,6.40
2018,12,15,02,24,6.40
2018,12,15,02,25,1.60
2018,12,15,02,26,8.10
2018,12,15,02,27,6.40
2018,12,15,02,28,1.60
2018,12,15,02,29,1.60
2018,12,15,02,30,9.60
2018,12,15,02,31,12.90
2018,12,15,02,35,8.10
2018,12,15,02,36,9.60
2018,12,15,02,37,9.60
2018,12,15,02,38,9.60
2018,12,15,02,39,9.60
2018,12,15,02,40,9.60
2018,12,15,02,41,4.80
2018,12,15,02,42,9.60
2018,12,15,02,43,9.60
2018,12,15,02,44,6.40
2018,12,15,02,45,11.30
2018,12,15,02,49,8.10
2018,12,15,02,50,4.80
2018,12,15,02,51,9.60
2018,12,15,02,52,6.40
2018,12,15,02,54,6.40
2018,12,15,02,55,6.40
2018,12,15,02,56,6.40
2018,12,15,02,57,3.20
2018,12,15,02,58,3.20
2018,12,15,02,59,9.60
2018,12,15,03,00,6.40
2018,12,15,03,03,1.60
2018,12,15,03,16,8.10
2018,12,15,03,21,1.60
2018,12,15,03,22,6.40
2018,12,15,03,23,6.40
2018,12,15,03,24,1.60
2018,12,15,03,25,1.60
2018,12,15,03,26,6.40
2018,12,15,03,27,4.80
2018,12,15,03,28,9.60
2018,12,15,03,46,1.60
2018,12,15,03,50,1.60
2018,12,15,03,54,8.10
2018,12,15,03,55,8.10
2018,12,15,03,59,1.60
2018,12,15,04,00,6.40
2018,12,15,04,07,6.40
2018,12,15,04,12,1.60
2018,12,15,04,15,3.20
2018,12,15,04,42,1.60
2018,12,15,04,47,4.80
2018,12,15,04,48,4.80
2018,12,15,05,09,1.60
2018,12,15,05,12,1.60
2018,12,15,05,21,6.40
2018,12,15,05,22,6.40
2018,12,15,05,25,3.20
2018,12,15,05,30,1.60
2018,12,15,05,34,1.60
2018,12,15,05,35,4.80
2018,12,15,05,36,1.60
2018,12,15,05,48,8.10
2018,12,15,05,49,6.40
2018,12,15,05,50,6.40
2018,12,15,05,51,4.80
2018,12,15,05,53,1.60
2018,12,15,06,06,1.60
2018,12,15,06,09,6.40
2018,12,15,06,10,11.30
2018,12,15,06,11,3.20
2018,12,15,06,17,3.20
2018,12,15,06,18,12.90
2018,12,15,06,19,9.60
2018,12,15,06,20,1.60
2018,12,15,06,25,12.90
2018,12,15,06,26,14.50
2018,12,15,06,27,3.20
2018,12,15,06,28,20.90
2018,12,15,06,29,33.80
2018,12,15,06,30,37.00
2018,12,15,06,31,8.10
2018,12,15,06,32,11.30
2018,12,15,06,33,16.10
2018,12,15,06,34,14.50
2018,12,15,06,35,35.40
2018,12,15,06,36,38.60
2018,12,15,06,37,33.80
2018,12,15,06,38,30.60
2018,12,15,06,39,37.00
2018,12,15,06,40,27.40
2018,12,15,06,41,37.00
2018,12,15,06,42,37.00
2018,12,15,06,43,32.20
2018,12,15,06,44,22.50
2018,12,15,06,45,19.30
2018,12,15,06,46,25.70
2018,12,15,06,47,38.60
2018,12,15,06,48,27.40
2018,12,15,06,49,22.50
2018,12,15,06,50,27.40
2018,12,15,06,51,25.70
2018,12,15,06,52,29.00
2018,12,15,06,53,32.20
2018,12,15,06,54,35.40
2018,12,15,06,55,24.20
2018,12,15,06,56,17.70
2018,12,15,06,57,12.90
2018,12,15,06,58,22.50
2018,12,15,06,59,27.40
2018,12,15,07,00,14.50
2018,12,15,07,01,19.30
2018,12,15,07,02,25.70
2018,12,15,07,03,30.60
2018,12,15,07,04,25.70
2018,12,15,07,05,17.70
2018,12,15,07,06,14.50
2018,12,15,07,07,19.30
2018,12,15,07,08,14.50
2018,12,15,07,09,12.90
2018,12,15,07,10,9.60
2018,12,15,07,11,19.30
2018,12,15,07,12,16.10
2018,12,15,07,13,17.70
2018,12,15,07,14,22.50
2018,12,15,07,15,35.40
2018,12,15,07,16,43.50
2018,12,15,07,17,35.40
2018,12,15,07,18,41.80
2018,12,15,07,19,54.70
2018,12,15,07,20,51.50
2018,12,15,07,21,54.70
2018,12,15,07,22,43.50
2018,12,15,07,23,41.80
2018,12,15,07,24,61.20
2018,12,15,07,25,38.60
2018,12,15,07,26,40.20
2018,12,15,07,27,41.80
2018,12,15,07,28,38.60
2018,12,15,07,29,30.60
2018,12,15,07,30,51.50
2018,12,15,07,31,45.10
2018,12,15,07,32,37.00
2018,12,15,07,33,43.50
2018,12,15,07,34,41.80
2018,12,15,07,35,46.70
2018,12,15,07,36,30.60
2018,12,15,07,37,33.80
2018,12,15,07,38,43.50
2018,12,15,07,39,33.80
2018,12,15,07,40,35.40
2018,12,15,07,41,25.70
2018,12,15,07,42,17.70
2018,12,15,07,43,24.20
2018,12,15,07,44,14.50
2018,12,15,07,45,20.90
2018,12,15,07,46,14.50
2018,12,15,07,47,14.50
2018,12,15,07,48,11.30
2018,12,15,07,49,1.60
2018,12,15,07,50,16.10
2018,12,15,07,51,14.50
2018,12,15,07,52,16.10
2018,12,15,07,53,12.90
2018,12,15,07,54,12.90
2018,12,15,07,55,6.40
2018,12,15,07,57,3.20
2018,12,15,07,59,6.40
2018,12,15,08,00,8.10
2018,12,15,08,01,11.30
2018,12,15,08,02,3.20
2018,12,15,08,03,1.60
2018,12,15,08,04,4.80
2018,12,15,08,05,9.60
2018,12,15,08,06,4.80
2018,12,15,08,07,1.60
2018,12,15,08,08,6.40
2018,12,15,08,10,12.90
2018,12,15,08,11,9.60
2018,12,15,08,12,8.10
2018,12,15,08,13,6.40
2018,12,15,08,15,11.30
2018,12,15,08,16,12.90
2018,12,15,08,18,1.60
2018,12,15,08,20,8.10
2018,12,15,08,21,8.10
2018,12,15,08,23,1.60
2018,12,15,08,25,9.60
2018,12,15,08,26,9.60
2018,12,15,08,31,33.80
2018,12,15,08,32,41.80
2018,12,15,08,33,27.40
2018,12,15,08,34,29.00
2018,12,15,08,35,22.50
2018,12,15,08,36,29.00
2018,12,15,08,37,32.20
2018,12,15,08,38,27.40
2018,12,15,08,39,43.50
2018,12,15,08,40,45.10
2018,12,15,08,41,51.50
2018,12,15,08,42,46.70
2018,12,15,08,43,37.00
2018,12,15,08,44,37.00
2018,12,15,08,45,43.50
2018,12,15,08,46,53.10
2018,12,15,08,47,35.40
2018,12,15,08,48,38.60
2018,12,15,08,49,43.50
2018,12,15,08,50,51.50
2018,12,15,08,51,40.20
2018,12,15,08,52,29.00
2018,12,15,08,53,59.50
2018,12,15,08,54,54.70
2018,12,15,08,55,74.00
2018,12,15,08,56,56.30
2018,12,15,08,57,59.50
2018,12,15,08,58,70.80
2018,12,15,08,59,67.60
2018,12,15,09,00,66.00
2018,12,15,09,01,40.20
2018,12,15,09,02,46.70
2018,12,15,09,03,49.90
2018,12,15,09,04,70.80
2018,12,15,09,05,61.20
2018,12,15,09,06,67.60
2018,12,15,09,07,51.50
2018,12,15,09,08,72.40
2018,12,15,09,09,59.50
2018,12,15,09,10,64.40
2018,12,15,09,11,67.60
2018,12,15,09,12,85.30
2018,12,15,09,13,85.30
2018,12,15,09,14,72.40
2018,12,15,09,15,74.00
2018,12,15,09,16,69.20
2018,12,15,09,17,61.20
2018,12,15,09,18,61.20
2018,12,15,09,19,59.50
2018,12,15,09,20,75.60
2018,12,15,09,21,57.90
2018,12,15,09,22,57.90
2018,12,15,09,23,61.20
2018,12,15,09,24,70.80
2018,12,15,09,25,70.80
2018,12,15,09,26,83.70
2018,12,15,09,27,54.70
2018,12,15,09,28,57.90
2018,12,15,09,29,57.90
2018,12,15,09,30,61.20
2018,12,15,09,31,62.70
2018,12,15,09,32,48.30
2018,12,15,09,33,48.30
2018,12,15,09,34,43.50
2018,12,15,09,35,56.30
2018,12,15,09,36,54.70
2018,12,15,09,37,72.40
2018,12,15,09,38,54.70
2018,12,15,09,39,78.80
2018,12,15,09,40,70.80
2018,12,15,09,41,67.60
2018,12,15,09,42,61.20
2018,12,15,09,43,49.90
2018,12,15,09,44,53.10
2018,12,15,09,45,59.50
2018,12,15,09,46,46.70
2018,12,15,09,47,72.40
2018,12,15,09,48,59.50
2018,12,15,09,49,69.20
2018,12,15,09,50,80.50
2018,12,15,09,51,72.40
2018,12,15,09,52,66.00
2018,12,15,09,53,75.60
2018,12,15,09,54,48.30
2018,12,15,09,55,49.90
2018,12,15,09,56,49.90
2018,12,15,09,57,78.80
2018,12,15,09,58,91.70
2018,12,15,09,59,80.50
2018,12,15,10,00,69.20
2018,12,15,10,01,45.10
2018,12,15,10,02,40.20
2018,12,15,10,03,48.30
2018,12,15,10,04,69.20
2018,12,15,10,05,61.20
2018,12,15,10,06,41.80
2018,12,15,10,07,38.60
2018,12,15,10,08,53.10
2018,12,15,10,09,37.00
2018,12,15,10,10,41.80
2018,12,15,10,11,37.00
2018,12,15,10,12,46.70
2018,12,15,10,13,33.80
2018,12,15,10,14,32.20
2018,12,15,10,15,46.70
2018,12,15,10,16,38.60
2018,12,15,10,17,45.10
2018,12,15,10,18,53.10
2018,12,15,10,19,54.70
2018,12,15,10,20,56.30
2018,12,15,10,21,43.50
2018,12,15,10,22,45.10
2018,12,15,10,23,64.40
2018,12,15,10,24,54.70
2018,12,15,10,25,77.30
2018,12,15,10,26,37.00
2018,12,15,10,27,40.20
2018,12,15,10,28,54.70
2018,12,15,10,29,53.10
2018,12,15,10,30,40.20
2018,12,15,10,31,45.10
2018,12,15,10,32,46.70
2018,12,15,10,33,46.70
2018,12,15,10,34,38.60
2018,12,15,10,35,30.60
2018,12,15,10,36,33.80
2018,12,15,10,37,43.50
2018,12,15,10,38,46.70
2018,12,15,10,39,51.50
2018,12,15,10,40,62.70
2018,12,15,10,41,83.70
2018,12,15,10,42,59.50
2018,12,15,10,43,64.40
2018,12,15,10,44,83.70
2018,12,15,10,45,74.00
2018,12,15,10,46,75.60
2018,12,15,10,47,72.40
2018,12,15,10,48,75.60
2018,12,15,10,49,70.80
2018,12,15,10,50,70.80
2018,12,15,10,51,78.80
2018,12,15,10,52,83.70
2018,12,15,10,53,72.40
2018,12,15,10,54,74.00
2018,12,15,10,55,91.70
2018,12,15,10,56,86.90
2018,12,15,10,57,93.30
2018,12,15,10,58,80.50
2018,12,15,10,59,91.70
2018,12,15,11,00,82.10
2018,12,15,11,01,91.70
2018,12,15,11,02,67.60
2018,12,15,11,03,86.90
2018,12,15,11,04,91.70
2018,12,15,11,05,82.10
2018,12,15,11,06,78.80
2018,12,15,11,07,75.60
2018,12,15,11,08,66.00
2018,12,15,11,09,61.20
2018,12,15,11,10,56.30
2018,12,15,11,11,72.40
2018,12,15,11,12,51.50
2018,12,15,11,13,78.80
2018,12,15,11,14,62.70
2018,12,15,11,15,54.70
2018,12,15,11,16,53.10
2018,12,15,11,17,70.80
2018,12,15,11,18,53.10
2018,12,15,11,19,54.70
2018,12,15,11,20,82.10
2018,12,15,11,21,54.70
2018,12,15,11,22,70.80
2018,12,15,11,23,72.40
2018,12,15,11,24,56.30
2018,12,15,11,25,74.00
2018,12,15,11,26,83.70
2018,12,15,11,27,62.70
2018,12,15,11,28,93.30
2018,12,15,11,29,59.50
2018,12,15,11,30,75.60
2018,12,15,11,31,82.10
2018,12,15,11,32,72.40
2018,12,15,11,33,88.50
2018,12,15,11,34,88.50
2018,12,15,11,35,67.60
2018,12,15,11,36,82.10
2018,12,15,11,37,69.20
2018,12,15,11,38,80.50
2018,12,15,11,39,70.80
2018,12,15,11,40,98.20
2018,12,15,11,41,64.40
2018,12,15,11,42,70.80
2018,12,15,11,43,67.60
2018,12,15,11,44,59.50
2018,12,15,11,45,109.40
2018,12,15,11,46,78.80
2018,12,15,11,47,61.20
2018,12,15,11,48,66.00
2018,12,15,11,49,67.60
2018,12,15,11,50,78.80
2018,12,15,11,51,82.10
2018,12,15,11,52,82.10
2018,12,15,11,53,85.30
2018,12,15,11,54,82.10
2018,12,15,11,55,95.00
2018,12,15,11,56,72.40
2018,12,15,11,57,64.40
2018,12,15,11,58,82.10
2018,12,15,11,59,86.90
2018,12,15,12,00,77.30
2018,12,15,12,01,82.10
2018,12,15,12,02,88.50
2018,12,15,12,03,67.60
2018,12,15,12,04,96.60
2018,12,15,12,05,99.80
2018,12,15,12,06,69.20
2018,12,15,12,07,75.60
2018,12,15,12,08,59.50
2018,12,15,12,09,72.40
2018,12,15,12,10,57.90
2018,12,15,12,11,85.30
2018,12,15,12,12,130.40
2018,12,15,12,13,96.60
2018,12,15,12,14,77.30
2018,12,15,12,15,72.40
2018,12,15,12,16,91.70
2018,12,15,12,17,75.60
2018,12,15,12,18,78.80
2018,12,15,12,19,78.80
2018,12,15,12,20,70.80
2018,12,15,12,21,67.60
2018,12,15,12,22,88.50
2018,12,15,12,23,53.10
2018,12,15,12,24,57.90
2018,12,15,12,25,74.00
2018,12,15,12,26,64.40
2018,12,15,12,27,77.30
2018,12,15,12,28,74.00
2018,12,15,12,29,70.80
2018,12,15,12,30,77.30
2018,12,15,12,31,67.60
2018,12,15,12,32,88.50
2018,12,15,12,33,54.70
2018,12,15,12,34,74.00
2018,12,15,12,35,41.80
2018,12,15,12,36,61.20
2018,12,15,12,37,46.70
2018,12,15,12,38,48.30
2018,12,15,12,39,69.20
2018,12,15,12,40,77.30
2018,12,15,12,41,70.80
2018,12,15,12,42,57.90
2018,12,15,12,43,67.60
2018,12,15,12,44,66.00
2018,12,15,12,45,74.00
2018,12,15,12,46,54.70
2018,12,15,12,47,66.00
2018,12,15,12,48,57.90
2018,12,15,12,49,64.40
2018,12,15,12,50,70.80
2018,12,15,12,51,61.20
2018,12,15,12,52,93.30
2018,12,15,12,53,69.20
2018,12,15,12,54,75.60
2018,12,15,12,55,72.40
2018,12,15,12,56,56.30
2018,12,15,12,57,69.20
2018,12,15,12,58,80.50
2018,12,15,12,59,82.10
2018,12,15,13,00,62.70
2018,12,15,13,01,59.50
2018,12,15,13,02,80.50
2018,12,15,13,03,66.00
2018,12,15,13,04,90.10
2018,12,15,13,05,56.30
2018,12,15,13,06,61.20
2018,12,15,13,07,64.40
2018,12,15,13,08,90.10
2018,12,15,13,09,83.70
2018,12,15,13,10,66.00
2018,12,15,13,11,83.70
2018,12,15,13,12,69.20
2018,12,15,13,13,78.80
2018,12,15,13,14,74.00
2018,12,15,13,15,56.30
2018,12,15,13,16,51.50
2018,12,15,13,17,75.60
2018,12,15,13,18,62.70
2018,12,15,13,19,69.20
2018,12,15,13,20,74.00
2018,12,15,13,21,90.10
2018,12,15,13,22,67.60
2018,12,15,13,23,59.50
2018,12,15,13,24,61.20
2018,12,15,13,25,70.80
2018,12,15,13,26,54.70
2018,12,15,13,27,62.70
2018,12,15,13,28,86.90
2018,12,15,13,29,70.80
2018,12,15,13,30,67.60
2018,12,15,13,31,54.70
2018,12,15,13,32,72.40
2018,12,15,13,33,49.90
2018,12,15,13,34,48.30
2018,12,15,13,35,67.60
2018,12,15,13,36,37.00
2018,12,15,13,37,69.20
2018,12,15,13,38,29.00
2018,12,15,13,39,37.00
2018,12,15,13,40,46.70
2018,12,15,13,41,56.30
2018,12,15,13,42,43.50
2018,12,15,13,43,51.50
2018,12,15,13,44,48.30
2018,12,15,13,45,41.80
2018,12,15,13,46,48.30
2018,12,15,13,47,46.70
2018,12,15,13,48,64.40
2018,12,15,13,49,49.90
2018,12,15,13,50,49.90
2018,12,15,13,51,51.50
2018,12,15,13,52,45.10
2018,12,15,13,53,54.70
2018,12,15,13,54,59.50
2018,12,15,13,55,61.20
2018,12,15,13,56,49.90
2018,12,15,13,57,66.00
2018,12,15,13,58,70.80
2018,12,15,13,59,56.30
2018,12,15,14,00,45.10
2018,12,15,14,01,49.90
2018,12,15,14,02,78.80
2018,12,15,14,03,62.70
2018,12,15,14,04,62.70
2018,12,15,14,05,56.30
2018,12,15,14,06,51.50
2018,12,15,14,07,72.40
2018,12,15,14,08,56.30
2018,12,15,14,09,54.70
2018,12,15,14,10,45.10
2018,12,15,14,11,49.90
2018,12,15,14,12,45.10
2018,12,15,14,13,37.00
2018,12,15,14,14,41.80
2018,12,15,14,15,43.50
2018,12,15,14,16,49.90
2018,12,15,14,17,38.60
2018,12,15,14,18,51.50
2018,12,15,14,19,45.10
2018,12,15,14,20,49.90
2018,12,15,14,21,43.50
2018,12,15,14,22,40.20
2018,12,15,14,23,38.60
2018,12,15,14,24,32.20
2018,12,15,14,25,32.20
2018,12,15,14,26,29.00
2018,12,15,14,27,30.60
2018,12,15,14,28,30.60
2018,12,15,14,29,35.40
2018,12,15,14,30,45.10
2018,12,15,14,31,49.90
2018,12,15,14,32,43.50
2018,12,15,14,33,20.90
2018,12,15,14,34,43.50
2018,12,15,14,35,38.60
2018,12,15,14,36,48.30
2018,12,15,14,37,37.00
2018,12,15,14,38,29.00
2018,12,15,14,39,40.20
2018,12,15,14,40,17.70
2018,12,15,14,41,29.00
2018,12,15,14,42,29.00
2018,12,15,14,43,43.50
2018,12,15,14,44,43.50
2018,12,15,14,45,27.40
2018,12,15,14,46,49.90
2018,12,15,14,47,40.20
2018,12,15,14,48,38.60
2018,12,15,14,49,38.60
2018,12,15,14,50,33.80
2018,12,15,14,51,40.20
2018,12,15,14,52,25.70
2018,12,15,14,53,41.80
2018,12,15,14,54,35.40
2018,12,15,14,55,32.20
2018,12,15,14,56,33.80
2018,12,15,14,57,29.00
2018,12,15,14,58,29.00
2018,12,15,14,59,37.00
2018,12,15,15,00,38.60
2018,12,15,15,01,27.40
2018,12,15,15,02,37.00
2018,12,15,15,03,37.00
2018,12,15,15,04,25.70
2018,12,15,15,05,27.40
2018,12,15,15,06,25.70
2018,12,15,15,07,25.70
2018,12,15,15,08,22.50
2018,12,15,15,09,25.70
2018,12,15,15,10,29.00
2018,12,15,15,11,29.00
2018,12,15,15,12,20.90
2018,12,15,15,13,25.70
2018,12,15,15,14,22.50
2018,12,15,15,15,22.50
2018,12,15,15,16,20.90
2018,12,15,15,17,17.70
2018,12,15,15,18,24.20
2018,12,15,15,19,22.50
2018,12,15,15,20,19.30
2018,12,15,15,21,25.70
2018,12,15,15,22,19.30
2018,12,15,15,23,29.00
2018,12,15,15,24,8.10
2018,12,15,15,28,3.20
2018,12,15,15,29,8.10
2018,12,15,15,30,11.30
2018,12,15,15,31,1.60
2018,12,15,15,36,1.60
2018,12,15,15,37,1.60
2018,12,15,15,38,8.10
2018,12,15,15,39,11.30
2018,12,15,15,43,12.90
2018,12,15,15,44,19.30
2018,12,15,15,45,19.30
2018,12,15,15,46,24.20
2018,12,15,15,47,17.70
2018,12,15,15,48,16.10
2018,12,15,15,49,1.60
2018,12,15,15,55,6.40
2018,12,15,15,59,14.50
2018,12,15,16,01,8.10
2018,12,15,16,02,8.10
2018,12,15,16,03,9.60
2018,12,15,16,04,3.20
2018,12,15,16,11,11.30
2018,12,15,16,13,9.60
2018,12,15,16,14,6.40
2018,12,15,16,16,1.60
2018,12,15,16,17,14.50
2018,12,15,16,18,4.80
2018,12,15,16,20,17.70
2018,12,15,16,21,19.30
2018,12,15,16,22,1.60
2018,12,15,16,23,16.10
2018,12,15,16,24,4.80
2018,12,15,16,27,8.10
2018,12,15,16,28,6.40
2018,12,15,16,29,8.10
2018,12,15,16,30,20.90
2018,12,15,16,31,45.10
2018,12,15,16,32,45.10
2018,12,15,16,33,32.20
2018,12,15,16,34,19.30
2018,12,15,16,35,17.70
2018,12,15,16,36,17.70
2018,12,15,16,37,11.30
2018,12,15,16,38,1.60
2018,12,15,16,40,9.60
2018,12,15,16,41,19.30
2018,12,15,16,42,53.10
2018,12,15,16,43,37.00
2018,12,15,16,44,24.20
2018,12,15,16,45,32.20
2018,12,15,16,46,33.80
2018,12,15,16,47,41.80
2018,12,15,16,48,35.40
2018,12,15,16,49,35.40
2018,12,15,16,50,30.60
2018,12,15,16,51,40.20
2018,12,15,16,52,38.60
2018,12,15,16,53,37.00
2018,12,15,16,54,41.80
2018,12,15,16,55,56.30
2018,12,15,16,56,53.10
2018,12,15,16,57,54.70
2018,12,15,16,58,48.30
2018,12,15,16,59,62.70
2018,12,15,17,00,48.30
2018,12,15,17,01,46.70
2018,12,15,17,02,70.80
2018,12,15,17,03,59.50
2018,12,15,17,04,33.80
2018,12,15,17,05,62.70
2018,12,15,17,06,51.50
2018,12,15,17,07,54.70
2018,12,15,17,08,38.60
2018,12,15,17,09,49.90
2018,12,15,17,10,64.40
2018,12,15,17,11,80.50
2018,12,15,17,12,46.70
2018,12,15,17,13,45.10
2018,12,15,17,14,41.80
2018,12,15,17,15,40.20
2018,12,15,17,16,43.50
2018,12,15,17,17,49.90
2018,12,15,17,18,43.50
2018,12,15,17,19,43.50
2018,12,15,17,20,33.80
2018,12,15,17,21,33.80
2018,12,15,17,22,43.50
2018,12,15,17,23,35.40
2018,12,15,17,24,38.60
2018,12,15,17,25,53.10
2018,12,15,17,26,46.70
2018,12,15,17,27,41.80
2018,12,15,17,28,40.20
2018,12,15,17,29,49.90
2018,12,15,17,30,22.50
2018,12,15,17,31,45.10
2018,12,15,17,32,30.60
2018,12,15,17,33,38.60
2018,12,15,17,34,35.40
2018,12,15,17,35,25.70
2018,12,15,17,36,37.00
2018,12,15,17,37,32.20
2018,12,15,17,38,19.30
2018,12,15,17,39,16.10
2018,12,15,17,40,22.50
2018,12,15,17,41,16.10
2018,12,15,17,42,29.00
2018,12,15,17,43,25.70
2018,12,15,17,44,49.90
2018,12,15,17,45,40.20
2018,12,15,17,46,46.70
2018,12,15,17,47,43.50
2018,12,15,17,48,46.70
2018,12,15,17,49,37.00
2018,12,15,17,50,41.80
2018,12,15,17,51,45.10
2018,12,15,17,52,46.70
2018,12,15,17,53,51.50
2018,12,15,17,54,41.80
2018,12,15,17,55,37.00
2018,12,15,17,56,43.50
2018,12,15,17,57,41.80
2018,12,15,17,58,38.60
2018,12,15,17,59,25.70
2018,12,15,18,00,37.00
2018,12,15,18,01,37.00
2018,12,15,18,02,32.20
2018,12,15,18,03,45.10
2018,12,15,18,04,69.20
2018,12,15,18,05,53.10
2018,12,15,18,06,51.50
2018,12,15,18,07,40.20
2018,12,15,18,08,45.10
2018,12,15,18,09,51.50
2018,12,15,18,10,40.20
2018,12,15,18,11,40.20
2018,12,15,18,12,72.40
2018,12,15,18,13,61.20
2018,12,15,18,14,64.40
2018,12,15,18,15,70.80
2018,12,15,18,16,66.00
2018,12,15,18,17,54.70
2018,12,15,18,18,61.20
2018,12,15,18,19,57.90
2018,12,15,18,20,53.10
2018,12,15,18,21,53.10
2018,12,15,18,22,78.80
2018,12,15,18,23,67.60
2018,12,15,18,24,66.00
2018,12,15,18,25,70.80
2018,12,15,18,26,66.00
2018,12,15,18,27,57.90
2018,12,15,18,28,62.70
2018,12,15,18,29,48.30
2018,12,15,18,30,45.10
2018,12,15,18,31,43.50
2018,12,15,18,32,62.70
2018,12,15,18,33,41.80
2018,12,15,18,34,43.50
2018,12,15,18,35,30.60
2018,12,15,18,36,43.50
2018,12,15,18,37,61.20
2018,12,15,18,38,62.70
2018,12,15,18,39,41.80
2018,12,15,18,40,43.50
2018,12,15,18,41,43.50
2018,12,15,18,42,40.20
2018,12,15,18,43,56.30
2018,12,15,18,44,62.70
2018,12,15,18,45,53.10
2018,12,15,18,46,48.30
2018,12,15,18,47,69.20
2018,12,15,18,48,41.80
2018,12,15,18,49,59.50
2018,12,15,18,50,48.30
2018,12,15,18,51,33.80
2018,12,15,18,52,43.50
2018,12,15,18,53,46.70
2018,12,15,18,54,46.70
2018,12,15,18,55,43.50
2018,12,15,18,56,41.80
2018,12,15,18,57,38.60
2018,12,15,18,58,45.10
2018,12,15,18,59,38.60
2018,12,15,19,00,40.20
2018,12,15,19,01,53.10
2018,12,15,19,02,25.70
2018,12,15,19,03,32.20
2018,12,15,19,04,33.80
2018,12,15,19,05,38.60
2018,12,15,19,06,38.60
2018,12,15,19,07,29.00
2018,12,15,19,08,24.20
2018,12,15,19,09,61.20
2018,12,15,19,10,67.60
2018,12,15,19,11,45.10
2018,12,15,19,12,33.80
2018,12,15,19,13,35.40
2018,12,15,19,14,41.80
2018,12,15,19,15,40.20
2018,12,15,19,16,33.80
2018,12,15,19,17,56.30
2018,12,15,19,18,54.70
2018,12,15,19,19,32.20
2018,12,15,19,20,56.30
2018,12,15,19,21,49.90
2018,12,15,19,22,54.70
2018,12,15,19,23,77.30
2018,12,15,19,24,82.10
2018,12,15,19,25,62.70
2018,12,15,19,26,57.90
2018,12,15,19,27,43.50
2018,12,15,19,28,49.90
2018,12,15,19,29,66.00
2018,12,15,19,30,51.50
2018,12,15,19,31,59.50
2018,12,15,19,32,45.10
2018,12,15,19,33,54.70
2018,12,15,19,34,56.30
2018,12,15,19,35,51.50
2018,12,15,19,36,67.60
2018,12,15,19,37,91.70
2018,12,15,19,38,56.30
2018,12,15,19,39,49.90
2018,12,15,19,40,61.20
2018,12,15,19,41,57.90
2018,12,15,19,42,53.10
2018,12,15,19,43,53.10
2018,12,15,19,44,56.30
2018,12,15,19,45,51.50
2018,12,15,19,46,37.00
2018,12,15,19,47,35.40
2018,12,15,19,48,38.60
2018,12,15,19,49,33.80
2018,12,15,19,50,40.20
2018,12,15,19,51,46.70
2018,12,15,19,52,43.50
2018,12,15,19,53,43.50
2018,12,15,19,54,45.10
2018,12,15,19,55,41.80
2018,12,15,19,56,46.70
2018,12,15,19,57,33.80
2018,12,15,19,58,48.30
2018,12,15,19,59,33.80
2018,12,15,20,00,43.50
2018,12,15,20,01,54.70
2018,12,15,20,02,56.30
2018,12,15,20,03,53.10
2018,12,15,20,04,69.20
2018,12,15,20,05,61.20
2018,12,15,20,06,45.10
2018,12,15,20,07,43.50
2018,12,15,20,08,43.50
2018,12,15,20,09,38.60
2018,12,15,20,10,38.60
2018,12,15,20,11,41.80
2018,12,15,20,12,48.30
2018,12,15,20,13,43.50
2018,12,15,20,14,49.90
2018,12,15,20,15,57.90
2018,12,15,20,16,80.50
2018,12,15,20,17,43.50
2018,12,15,20,18,77.30
2018,12,15,20,19,78.80
2018,12,15,20,20,74.00
2018,12,15,20,21,38.60
2018,12,15,20,22,66.00
2018,12,15,20,23,48.30
2018,12,15,20,24,57.90
2018,12,15,20,25,40.20
2018,12,15,20,26,45.10
2018,12,15,20,27,70.80
2018,12,15,20,28,62.70
2018,12,15,20,29,41.80
2018,12,15,20,30,45.10
2018,12,15,20,31,80.50
2018,12,15,20,32,59.50
2018,12,15,20,33,49.90
2018,12,15,20,34,57.90
2018,12,15,20,35,66.00
2018,12,15,20,36,49.90
2018,12,15,20,37,37.00
2018,12,15,20,38,43.50
2018,12,15,20,39,53.10
2018,12,15,20,40,53.10
2018,12,15,20,41,61.20
2018,12,15,20,42,75.60
2018,12,15,20,43,53.10
2018,12,15,20,44,43.50
2018,12,15,20,45,70.80
2018,12,15,20,46,72.40
2018,12,15,20,47,75.60
2018,12,15,20,48,72.40
2018,12,15,20,49,83.70
2018,12,15,20,50,82.10
2018,12,15,20,51,77.30
2018,12,15,20,52,93.30
2018,12,15,20,53,69.20
2018,12,15,20,54,95.00
2018,12,15,20,55,77.30
2018,12,15,20,56,74.00
2018,12,15,20,57,91.70
2018,12,15,20,58,56.30
2018,12,15,20,59,61.20
2018,12,15,21,00,66.00
2018,12,15,21,01,67.60
2018,12,15,21,02,77.30
2018,12,15,21,03,66.00
2018,12,15,21,04,66.00
2018,12,15,21,05,91.70
2018,12,15,21,06,80.50
2018,12,15,21,07,96.60
2018,12,15,21,08,75.60
2018,12,15,21,09,67.60
2018,12,15,21,10,83.70
2018,12,15,21,11,74.00
2018,12,15,21,12,78.80
2018,12,15,21,13,72.40
2018,12,15,21,14,69.20
2018,12,15,21,15,77.30
2018,12,15,21,16,96.60
2018,12,15,21,17,77.30
2018,12,15,21,18,74.00